Location: Chervonnoye
(48.6000°N, 34.4000°E)
Time: 17:05:20
(UTC+00:00)

Okean-O - Pass Details

Date: 20 April 2021
Orbit: 639 x 640 km, 98.2° (Epoch: 16 May)

Event Time Altitude Azimuth Distance (km) Brightness Sun altitude
Rises 17:43:30 0° 208° (SSW) 2,934 6.0 -10.1°
Reaches altitude 10° 17:46:24 10° 229° (SW) 2,031 5.4 -10.6°
Maximum altitude 17:49:17 17° 270° (W) 1,624 5.6 -11.0°
Drops below altitude 10° 17:52:11 10° 311° (NW) 2,042 6.7 -11.4°
Sets 17:55:07 0° 331° (NNW) 2,957 7.2 -11.8°
